This demonstration page uses our WeatherBlox Daily Observations layout. Learn more.

Left ArrowRight Arrow

34.74481, -87.66753

Hourly Observations for February 24, 2020

Temp ( °F °C ) Dew Point ( °F °C ) Humidity (%) Winds ( mph kmh ) Pressure ( in mb ) Visibility ( mi km ) Precip ( " mm )
12:53 am 00:53 Cloudy 48 8.9 43 6.1 83 83 SE 6 9 30.04 1017 10 16 0.00 0.00
1:53 am 01:53 Cloudy 48 8.9 42 5.6 80 80 SSE 6 9 30.02 1017 10 16 0.00 0.00
2:40 am 02:40 Cloudy with Light Rain 47 8.3 41 5 80 80 ESE 5 7 30.00 1016 10 16 0.01 0.25
2:53 am 02:53 Cloudy 47 8.3 41 5 80 80 SE 5 7 29.99 1016 10 16 0.01 0.25
3:53 am 03:53 Cloudy with Light Rain 46 7.8 41 5 83 83 SE 6 9 29.98 1015 7 11 0.03 0.76
4:03 am 04:03 Cloudy 46 7.8 42 5.6 86 86 SSE 3 6 30.01 1016 10 16 0.00 0.00
4:53 am 04:53 Cloudy with Light Rain 45 7.2 43 6.1 93 93 SE 6 9 29.99 1016 3 5 0.03 0.76
5:06 am 05:06 Cloudy with Light Rain 45 7.2 43 6.1 93 93 SE 6 9 30.01 1016 5 8 0.00 0.00
5:53 am 05:53 Cloudy with Light Rain 45 7.2 43 6.1 93 93 SE 8 13 29.98 1015 6 10 0.02 0.51
6:53 am 06:53 Cloudy 46 7.8 42 5.6 86 86 SE 10 17 29.95 1014 9 14 0.00 0.00
7:53 am 07:53 Cloudy 47 8.3 42 5.6 83 83 SE 13 20 29.94 1014 10 16 0.00 0.00
8:53 am 08:53 Cloudy 48 8.9 43 6.1 83 83 SSE 8 13 29.92 1013 10 16 0.00 0.00
9:15 am 09:15 Cloudy with Light Rain 48 8.9 43 6.1 83 83 SSE 7 11 29.95 1014 9 14 0.00 0.00
9:53 am 09:53 Cloudy with Rain 48 8.9 44 6.7 86 86 SE 12 19 29.91 1013 4 6 0.03 0.76
10:53 am 10:53 Cloudy with Rain 48 8.9 45 7.2 89 89 ESE 3 6 29.93 1014 5 8 0.07 1.78
11:05 am 11:05 Cloudy with Heavy Rain 48 8.9 45 7.2 89 89 ESE 6 9 29.93 1014 3 5 0.05 1.27
11:27 am 11:27 Cloudy with Rain 48 8.9 46 7.8 93 93 SE 13 20 29.90 1013 3 5 0.11 2.79
11:53 am 11:53 Cloudy with Light Rain 49 9.4 46 7.8 90 90 SE 12 19 29.86 1011 6 10 0.14 3.56
12:20 pm 12:20 Cloudy with Light Rain 50 10 47 8.3 89 89 SE 16 26 29.83 1010 5 8 0.03 0.76
12:29 pm 12:29 Cloudy with Light Rain 50 10 47 8.3 89 89 SE 17 28 29.82 1010 7 11 0.03 0.76
12:53 pm 12:53 Cloudy with Light Rain 50 10 48 8.9 93 93 SE 15 24 29.78 1008 7 11 0.04 1.02
1:21 pm 13:21 Cloudy with Light Rain 52 11.1 49 9.4 89 89 SSE 15 24 29.77 1008 10 16 0.01 0.25
1:53 pm 13:53 Cloudy 53 11.7 50 10 89 89 S 9 15 29.78 1008 10 16 0.01 0.25
2:53 pm 14:53 Cloudy 54 12.2 51 10.6 90 90 SSE 8 13 29.75 1007 10 16 0.00 0.00
3:12 pm 15:12 Cloudy 54 12.2 51 10.6 90 90 SE 8 13 29.74 1007 10 16 0.00 0.00
3:53 pm 15:53 Cloudy 55 12.8 52 11.1 90 90 SE 5 7 29.71 1006 10 16 0.00 0.00
4:53 pm 16:53 Cloudy 56 13.3 53 11.7 90 90 SSE 9 15 29.69 1005 10 16 0.00 0.00
5:53 pm 17:53 Cloudy 57 13.9 54 12.2 90 90 S 9 15 29.70 1006 10 16 0.00 0.00
6:53 pm 18:53 Cloudy 57 13.9 54 12.2 90 90 SE 6 9 29.70 1006 10 16 0.00 0.00
7:45 pm 19:45 Cloudy 56 13.3 54 12.2 93 93 SSE 5 7 29.71 1006 10 16 0.00 0.00
7:53 pm 19:53 Cloudy 56 13.3 54 12.2 93 93 SE 9 15 29.70 1006 10 16 0.00 0.00
8:41 pm 20:41 Cloudy 56 13.3 54 12.2 93 93 SSE 8 13 29.70 1006 10 16 0.00 0.00
8:49 pm 20:49 Cloudy 55 13 54 12 94 94 SSE 9 15 29.70 1006 10 16 0.00 0.00
8:53 pm 20:53 Cloudy 56 13.3 54 12.2 93 93 SE 10 17 29.69 1005 10 16 0.00 0.00
9:26 pm 21:26 Cloudy 56 13.3 54 12.2 93 93 SSE 8 13 29.69 1005 10 16 0.00 0.00
9:53 pm 21:53 Cloudy 56 13.3 54 12.2 93 93 S 7 11 29.68 1005 9 14 0.00 0.00
10:08 pm 22:08 Cloudy 58 14.4 55 12.8 90 90 S 9 15 29.69 1005 10 16 0.00 0.00
10:53 pm 22:53 Cloudy 59 15 56 13.3 90 90 SSW 10 17 29.67 1005 10 16 0.00 0.00
11:02 pm 23:02 Cloudy 59 15 56 13.3 90 90 SSW 9 15 29.68 1005 10 16 0.00 0.00
11:18 pm 23:18 Cloudy with Heavy Rain 59 15 56 13.3 90 90 W 23 37 29.70 1006 4 6 0.06 1.52
11:29 pm 23:29 Cloudy with Light Rain 57 13.9 52 11.1 83 83 W 14 22 29.70 1006 10 16 0.06 1.52
11:53 pm 23:53 Cloudy 57 13.9 53 11.7 87 87 W 8 13 29.70 1006 10 16 0.06 1.52

Powered by AerisWeather